Regional Weather Roundup
Issued by NWS

Home | Current Version | Previous Version | Text Only | Print | Product List | Glossary On
Versions: 1 2 3 4 5 6 7 8 9 10 11 12 13 14 15 16 17 18 19 20 21 22 23 24 25 26 27 28 29 30 31 32 33 34 35 36 37 38 39 40 41 42 43 44 45 46 47 48 49 50
418
ASUS45 KBOU 250910
RWRCO

WEATHER ROUNDUP FOR COLORADO
NATIONAL WEATHER SERVICE DENVER/BOULDER CO
200 AM MST SAT NOV 25 2017

NOTE: "FAIR" INDICATES FEW OR NO CLOUDS BELOW 12000 FEET WITH NO
SIGNIFICANT WEATHER AND/OR OBSTRUCTIONS TO VISIBILITY.

COZ001>005-013-030-031-251000-
...NORTHWEST COLORADO...

CITY           SKY/WX    TMP DP  RH WIND       PRES   REMARKS
CRAIG          FAIR      29  25  85 CALM      30.25R
HAYDEN         FAIR      35  28  75 E3        30.25R
MEEKER         FAIR      31  26  82 NE7       30.23R WCI  24
RABBIT EARS PA CLOUDY    28  27  93 W8        30.26S FOG     WCI  20
STEAMBOAT SPGS FAIR      29  28  96 CALM      30.24R
WALDEN         FAIR      34  27  75 SW8       30.23R WCI  27
$$

COZ006>008-011-251000-
...WEST CENTRAL VALLEYS...

CITY           SKY/WX    TMP DP  RH WIND       PRES   REMARKS
GRAND JUNCTION FAIR      39  29  67 CALM      30.18R
MONTROSE       FAIR      36  25  64 S7        30.23R
EAGLE          FAIR      28  25  88 SE3       30.27R
RIFLE          FAIR      32  27  81 SE3       30.22R
DELTA          FAIR      38  28  65 CALM      30.23R
NUCLA          FAIR      39  23  52 SE9       30.23R
$$

COZ017>023-064>068-251000-
...SOUTHWEST COLORADO...

CITY           SKY/WX    TMP DP  RH WIND       PRES   REMARKS
DURANGO        FAIR      30  22  72 E5        30.19R WCI  25
CORTEZ         FAIR      34  24  67 NE7       30.20R WCI  28
PAGOSA SPRINGS FAIR      28  22  78 CALM      30.25R
TELLURIDE      FAIR      36  20  51 SE5       30.34R
WOLF CREEK PAS FAIR      30  12  47 S6        30.42R WCI  24
$$

COZ009-010-012-014-032>034-037-058>063-251000-
...CENTRAL COLORADO...

CITY           SKY/WX    TMP DP  RH WIND       PRES   REMARKS
ASPEN          FAIR      32  24  72 SW7       30.24S WCI  26
BUENA VISTA    FAIR      40  21  45 NW9       30.20S
COPPER MTN     FAIR      30  14  51 W5        30.33F WCI  25
BERTHOUD PASS  FAIR      19   9  63 NW26G32   30.29F WCI   1
COTTONWOOD PAS FAIR      45  14  29 W15G25    30.26R
GUNNISON       FAIR      26  22  84 NE5       30.28R WCI  20
KREMMLING      FAIR      32  28  86 CALM      30.25S
LEADVILLE      FAIR      31  16  54 N7        30.27S WCI  24
MONARCH PASS   FAIR      28  19  69 W35       30.43R WCI  12
SALIDA         FAIR      35  23  62 CALM      30.29R
SUNLIGHT       FAIR      28  18  64 SW8       30.36R WCI  20
WILKERSON PASS FAIR      30  14  51 W10G20    30.30R WCI  21
$$

COZ069>075-251000-
...SAN LUIS VALLEY/SANGRE DE CRISTO MOUNTAINS...

CITY           SKY/WX    TMP DP  RH WIND       PRES   REMARKS
ALAMOSA        FAIR      25  17  72 NW6       30.22R WCI  18
DEL NORTE      FAIR      30  18  60 W12       30.26R WCI  21
LA VETA PASS   FAIR      34  18  51 MISG        N/A
SAGUACHE       FAIR      34  21  60 N7        30.24R WCI  28
$$

COZ035-036-038>040-251000-
...NORTHERN COLORADO FRONT RANGE...

CITY           SKY/WX    TMP DP  RH WIND       PRES   REMARKS
DENVER INTL AP FAIR      40  31  70 W6        30.12R
DMNS CITY PARK   N/A     38  31  76 E8        30.12S
AURORA         PTCLDY    37  31  80 S7        30.12R
FRONT RANGE AP FAIR      41  34  74 S7        30.12R
ERIE MUNI ARPT FAIR      32  30  92 CALM      30.18S
BOULDER MUN AP FAIR      37  32  81 CALM      30.13R
CENTENNIAL     FAIR      36  31  82 SW5       30.12R
BROOMFIELD     FAIR      41  34  75 N13       30.12S
FORT COLLINS   FAIR      35  32  88 NE7       30.14R WCI  29
LONGMONT       FAIR      38  32  79 N3        30.15R
$$

COZ041-046-047-076>085-087-088-251000-
...PIKES PEAK/PALMER DIVIDE AND SOUTHERN FOOTHILLS...

CITY           SKY/WX    TMP DP  RH WIND       PRES   REMARKS
COLO. SPRINGS  FAIR      41  31  67 E7        30.16R
A. F. ACADEMY  FAIR      28  25  89 N9        30.15R WCI  19
SCHRIEVER AFB  FAIR      37  30  77 CALM      30.17R
CHEYENNE MTN   FAIR      40  30  67 CALM      30.10R
ELLICOTT         N/A    N/A N/A N/A SW6       30.15R
FALCON         FAIR      36  30  79 SW7       30.18S
FORT CARSON    FAIR      44  31  61 SW8       30.14R
LIMON          FAIR      25  24  96 N6        30.15R WCI  18
MONUMENT HILL  FAIR      36  32  87 S16       30.16R
CANON CITY     FAIR      43  32  65 CALM      30.14R
WALSENBURG     NOT AVBL
TRINIDAD       FAIR      35  28  75 CALM      30.16R
$$

COZ042>045-048>051-090-091-251000-
...NORTHEAST COLORADO...

CITY           SKY/WX    TMP DP  RH WIND       PRES   REMARKS
GREELEY ARPT   FAIR      31  28  89 N7        30.15R WCI  24
AKRON          FAIR      38  25  59 S6        30.12R
BURLINGTON     FAIR      29  26  89 W8        30.14R WCI  21
WRAY           NOT AVBL
YUMA           FAIR      27  23  86 W7        30.12R WCI  19
STERLING       FAIR      28  27  93 S6        30.12R WCI  22
HOLYOKE        FAIR      30  23  74 W8        30.12R WCI  23
FORT MORGAN    FAIR      36  29  75 CALM      30.13S
$$

COZ086-089-092>099-251000-
...SOUTHEAST COLORADO...

CITY           SKY/WX    TMP DP  RH WIND       PRES   REMARKS
PUEBLO         FAIR      39  30  70 S3        30.12R
LA JUNTA       FAIR      39  30  70 NW6       30.12R
LAMAR          FAIR      40  31  70 CALM      30.12R
SPRINGFIELD      N/A     32  29  88 W6        30.12R WCI  26
$$




USA.gov is the U.S. government's official web portal to all federal, state and local government web resources and services.